STARLINK-3898, 52458

Orbit data source: Space-Track

STARLINK-3898, 52458 is a payload satellite owned by SpaceX/Seattle (US) in LEO that was launched on Fri, 06 May 2022 UTC via an FALCON 9 launch vehicle from the Air Force Eastern Test Range (AFETR). Payload-class satellites include a variety of spacecraft equipped with specific instruments for various scientific and technological missions. These include communications satellites like Starlink; space stations such as the ISS; scientific satellites like the Hubble; Earth observation satellites from companies like Planet Labs, Umbra, and HawkEye 360; GPS; miniature CubeSats for education and research; and military/defense satellites.

Loading next visibility...
Identifier
52458, 2022-049H
Orbit
LEO
Country
Flag of USUS
Related business
Manufacturer
SpaceX/Seattle
Mission
Operational spacecraft
Bus & Motor
STARLINK, Unknown motor
Mass
297 kg wet, ~220 kg dry
Launch date (UTC)
2022-05-06 (4 years ago)
Launch vehicle
FALCON 9
Launch site
Air Force Eastern Test Range (AFETR)
Object type
Payload
Rocket body
Debris
Shape & HBR
Unknown shape, 10.1 m
Radar Cross Section
Large (>1 m²)

Expand to show TLE details & history
Last TLE update: 16 hours ago

TLE from 16 hours ago
0 STARLINK-3898
1 52458U 22049H   25346.71759517  .00000045  00000-0  20923-4 0  9992
2 52458  53.2176  99.5553 0001468  89.6459 270.4702 15.08835094198986
Epoch: 2025-12-12T17:13Z
TLE epoch observation values (Epoch: 2025-12-12T17:13:20.222Z)
Latitude
0.00002°
Longitude
119.56585°
Altitude
540.648 km
Speed
7.593 km/s
True Right ascension
06h 38m 13s
True Declination
0° 00' 00"
Sunlit
Object was in full shadow at epoch
Visualization orbit readout
Latitude
Unknown
Longitude
Unknown
Altitude
Unknown
Speed
Unknown
Apparent Right ascension
Unknown
Apparent Declination
Unknown
Sunlit
N/A
Visualization observer readout
Local Sidereal Time
07:26:32
Azimuth
Unknown
Elevation
Unknown
Doppler factor
Unknown
Orbital elements
Apogee altitude
541.019 km
Perigee altitude
538.988 km
Semi-major axis
6,918.14 km
Eccentricity
0.00015
Inclination
53.2176°
RAAN
99.5553°
Arg. of periapsis
89.6459°
True anomaly
270.45338°
Mean anomaly
270.4702°
Eccentric anomaly
270.46179°
Mean motion
3.77189 °/min
Orbital period
95.44 mins
BSTAR
0.000020923
Loading maneuver chart data...
Computing Atmospheric mass density...
Loading historical data...
Loading historical data...
Loading historical data...
Loading historical data...
Loading historical data...
Loading historical data...
Loading historical data...

Documentation

Showing up to 5 results
|